Mount Zion, GA

12:20 PM EST on February 12, 2016 (GMT -0500)
West Georgia Regional-Gray

Weather History for KCTJ - May, 2014

Change the Weather History Date:

Sunday, May 18, 2014

  Actual Average Record
Temperature  
Mean Temperature 56 °F -  
Max Temperature 60 °F 81 °F 94 °F (1962)
Min Temperature 53 °F 53 °F 36 °F (1973)
Degree Days  
Heating Degree Days 8    
Growing Degree Days 6 (Base 50)    
Moisture  
Dew Point 55 °F    
Average Humidity 91    
Maximum Humidity 100    
Minimum Humidity 82    
Precipitation  
Precipitation 0.00 in - - ()
Sea Level Pressure  
Sea Level Pressure 30.21 in    
Wind  
Wind Speed 1 mph (NNE)    
Max Wind Speed 7 mph    
Max Gust Speed -    
Visibility 9 miles    
Events Fog , Rain , Thunderstorm    
Averages and records for this station are not official NWS values.
T = Trace of Precipitation, MM = Missing Value Source: NWS Daily Summary

Daily Weather History Graph

Daily Weather History Graph

Search for Another Location

Airport or City:

Trip Planner

Search our weather history database for the weather conditions in past years. The results will help you decide how hot, cold, wet, or windy it might be!

Date:

Astronomy

May. 18, 2014 Rise Set
Actual Time 6:37 AM EDT 8:36 PM EDT
Civil Twilight 6:10 AM EDT 9:04 PM EDT
Nautical Twilight 5:36 AM EDT 9:38 PM EDT
Astronomical Twilight 5:00 AM EDT 10:14 PM EDT
Moon No Moon Rise 10:23 AM EDT (5/18)
Length of Visible Light 14h 54m
Length of Day
13h 58m
Waning Gibbous, 81% of the Moon is Illuminated
May 18
Waning Gibbous
May 21
Last Quarter
May 28
New
Jun 5
First Quarter
Jun 13
Full

Hourly Weather History & Observations

Time (EDT) Temp. Dew Point Humidity Pressure Visibility Wind Dir Wind Speed Gust Speed Precip Events Conditions
12:12 AM 57.2 °F 51.8 °F 82% 30.18 in 10.0 mi Calm Calm - N/A   Clear
12:32 AM 57.2 °F 51.8 °F 82% 30.18 in 10.0 mi Calm Calm - N/A   Clear
12:52 AM 57.2 °F 51.8 °F 82% 30.18 in 10.0 mi Calm Calm - N/A   Clear
1:12 AM 57.2 °F 51.8 °F 82% 30.17 in 10.0 mi Calm Calm - N/A   Clear
1:31 AM 55.4 °F 51.8 °F 88% 30.17 in 10.0 mi Calm Calm - N/A   Clear
1:52 AM 55.4 °F 51.8 °F 88% 30.17 in 10.0 mi Calm Calm - N/A   Clear
2:12 AM 55.4 °F 51.8 °F 88% 30.17 in 10.0 mi Calm Calm - N/A   Clear
2:32 AM 55.4 °F 51.8 °F 88% 30.16 in 10.0 mi Calm Calm - N/A   Clear
2:52 AM 55.4 °F 51.8 °F 88% 30.17 in 10.0 mi North 3.5 mph - N/A   Clear
3:12 AM 55.4 °F 51.8 °F 88% 30.17 in 10.0 mi Calm Calm - N/A   Scattered Clouds
3:32 AM 55.4 °F 51.8 °F 88% 30.18 in 10.0 mi Calm Calm - N/A   Scattered Clouds
3:52 AM 55.4 °F 51.8 °F 88% 30.18 in 10.0 mi Calm Calm - N/A   Scattered Clouds
4:12 AM 55.4 °F 51.8 °F 88% 30.17 in 10.0 mi Calm Calm - N/A   Scattered Clouds
4:32 AM 55.4 °F 51.8 °F 88% 30.17 in 10.0 mi Calm Calm - N/A   Mostly Cloudy
4:52 AM 55.4 °F 51.8 °F 88% 30.17 in 10.0 mi Calm Calm - N/A   Mostly Cloudy
5:12 AM 55.4 °F 51.8 °F 88% 30.18 in 10.0 mi NNE 3.5 mph - N/A   Mostly Cloudy
5:32 AM 55.4 °F 51.8 °F 88% 30.19 in 10.0 mi North 5.8 mph - N/A   Overcast
5:52 AM 55.4 °F 50.0 °F 82% 30.19 in 10.0 mi Calm Calm - N/A   Mostly Cloudy
6:32 AM 55.4 °F 51.8 °F 88% 30.21 in 10.0 mi Calm Calm - N/A   Overcast
6:52 AM 55.4 °F 51.8 °F 88% 30.21 in 10.0 mi Calm Calm - N/A   Overcast
7:12 AM 55.4 °F 51.8 °F 88% 30.21 in 10.0 mi Calm Calm - N/A   Overcast
7:32 AM 55.4 °F 51.8 °F 88% 30.21 in 10.0 mi Calm Calm - N/A   Overcast
7:52 AM 55.4 °F 53.6 °F 94% 30.22 in 10.0 mi Calm Calm - N/A Thunderstorm Thunderstorm
8:12 AM 55.4 °F 53.6 °F 94% 30.22 in 10.0 mi Calm Calm - N/A Thunderstorm Overcast
8:32 AM 55.4 °F 53.6 °F 94% 30.22 in 10.0 mi Calm Calm - N/A   Overcast
8:52 AM 55.4 °F 53.6 °F 94% 30.23 in 10.0 mi Calm Calm - N/A   Overcast
9:12 AM 55.4 °F 53.6 °F 94% 30.23 in 10.0 mi ENE 3.5 mph - N/A   Overcast
9:32 AM 57.2 °F 53.6 °F 88% 30.22 in 10.0 mi Calm Calm - N/A Thunderstorm Overcast
9:52 AM 57.2 °F 55.4 °F 94% 30.22 in 10.0 mi SE 3.5 mph - N/A Thunderstorm Thunderstorm
10:12 AM 59.0 °F 53.6 °F 82% 30.25 in 10.0 mi NNE 4.6 mph - N/A Thunderstorm Thunderstorm
10:32 AM 59.0 °F 55.4 °F 88% 30.24 in 10.0 mi Calm Calm - N/A   Overcast
10:52 AM 59.0 °F 53.6 °F 82% 30.24 in 10.0 mi Calm Calm - N/A Thunderstorm Overcast
11:12 AM 59.0 °F 55.4 °F 88% 30.24 in 10.0 mi ENE 3.5 mph - N/A   Overcast
11:32 AM 59.0 °F 53.6 °F 82% 30.25 in 10.0 mi NE 3.5 mph - N/A   Overcast
12:12 PM 60.8 °F 55.4 °F 82% 30.25 in 10.0 mi NE 5.8 mph - N/A   Overcast
12:32 PM 60.8 °F 55.4 °F 82% 30.24 in 10.0 mi NE 6.9 mph - N/A   Overcast
12:52 PM 60.8 °F 55.4 °F 82% 30.24 in 10.0 mi NE 6.9 mph - N/A   Overcast
1:12 PM 60.8 °F 55.4 °F 82% 30.25 in 10.0 mi NNE 6.9 mph - N/A   Overcast
1:32 PM 60.8 °F 55.4 °F 82% 30.25 in 10.0 mi NNE 5.8 mph - N/A   Overcast
1:52 PM 59.0 °F 55.4 °F 88% 30.25 in 10.0 mi ENE 3.5 mph - N/A Rain Light Rain
2:12 PM 60.8 °F 55.4 °F 82% 30.25 in 10.0 mi NNE 4.6 mph - N/A Rain Light Rain
2:32 PM 59.0 °F 55.4 °F 88% 30.25 in 10.0 mi NE 4.6 mph - N/A Rain Light Rain
2:52 PM 59.0 °F 55.4 °F 88% 30.24 in 10.0 mi ENE 3.5 mph - N/A   Overcast
3:12 PM 59.0 °F 55.4 °F 88% 30.23 in 10.0 mi NNE 3.5 mph - N/A Rain Rain
3:32 PM 59.0 °F 57.2 °F 94% 30.22 in 7.0 mi Calm Calm - N/A Rain Rain
3:52 PM 59.0 °F 57.2 °F 94% 30.21 in 10.0 mi Calm Calm - N/A Rain Light Rain
4:12 PM 59.0 °F 59.0 °F 100% 30.21 in 10.0 mi Calm Calm - N/A Rain Rain
4:32 PM 59.0 °F 59.0 °F 100% 30.20 in 10.0 mi Calm Calm - N/A   Overcast
4:52 PM 59.0 °F 59.0 °F 100% 30.21 in 7.0 mi Calm Calm - N/A Rain Light Rain
5:12 PM 59.0 °F 59.0 °F 100% 30.21 in 10.0 mi Calm Calm - N/A Rain Rain
5:32 PM 59.0 °F 59.0 °F 100% 30.20 in 10.0 mi Calm Calm - N/A   Light Drizzle
5:52 PM 59.0 °F 59.0 °F 100% 30.21 in 10.0 mi Calm Calm - N/A Rain Light Rain
6:12 PM 60.8 °F 59.0 °F 94% 30.20 in 10.0 mi Calm Calm - N/A Rain Light Rain
6:32 PM 60.8 °F 59.0 °F 94% 30.20 in 10.0 mi Calm Calm - N/A   Light Drizzle
6:52 PM 60.8 °F 59.0 °F 94% 30.20 in 10.0 mi North 3.5 mph - N/A   Mostly Cloudy
7:12 PM 60.8 °F 59.0 °F 94% 30.20 in 10.0 mi North 4.6 mph - N/A   Overcast
7:32 PM 60.8 °F 59.0 °F 94% 30.20 in 10.0 mi North 3.5 mph - N/A   Mostly Cloudy
7:52 PM 60.8 °F 59.0 °F 94% 30.20 in 10.0 mi North 3.5 mph - N/A   Scattered Clouds
8:12 PM 59.0 °F 59.0 °F 100% 30.20 in 10.0 mi North 3.5 mph - N/A   Scattered Clouds
8:32 PM 59.0 °F 59.0 °F 100% 30.21 in 10.0 mi Calm Calm - N/A   Clear
8:52 PM 59.0 °F 57.2 °F 94% 30.21 in 7.0 mi Calm Calm - N/A   Scattered Clouds
9:12 PM 57.2 °F 57.2 °F 100% 30.21 in 7.0 mi Calm Calm - N/A   Overcast
9:32 PM 55.4 °F 55.4 °F 100% 30.21 in 5.0 mi Calm Calm - N/A   Mostly Cloudy
9:52 PM 55.4 °F 55.4 °F 100% 30.21 in 1.0 mi Calm Calm - N/A   Mostly Cloudy
10:12 PM 55.4 °F 55.4 °F 100% 30.22 in 0.5 mi Calm Calm - N/A Fog Fog
10:32 PM 53.6 °F 53.6 °F 100% 30.22 in 5.0 mi Calm Calm - N/A   Mostly Cloudy
10:52 PM 55.4 °F 55.4 °F 100% 30.22 in 5.0 mi Calm Calm - N/A   Scattered Clouds
11:12 PM 53.6 °F 53.6 °F 100% 30.23 in 5.0 mi Calm Calm - N/A   Clear
11:32 PM 53.6 °F 53.6 °F 100% 30.22 in 4.0 mi Calm Calm - N/A   Clear
11:52 PM 53.6 °F 53.6 °F 100% 30.22 in 0.5 mi Calm Calm - N/A Fog Fog